Pine Bluff, AR

9:48 AM CDT on September 30, 2016 (GMT -0500)
Grider

Weather History for KPBF - August, 2014

Change the Weather History Date:

Sunday, August 17, 2014

  Actual Average Record
Temperature  
Mean Temperature 85 °F 81 °F  
Max Temperature 93 °F 92 °F 107 °F (1909)
Min Temperature 77 °F 71 °F 56 °F (1992)
Degree Days  
Heating Degree Days 0 0  
Month to date heating degree days 0 0  
Since 1 June heating degree days 1 0  
Since 1 July heating degree days 1 0  
Cooling Degree Days 20 16  
Month to date cooling degree days 229 287  
Year to date cooling degree days 1271 1544  
Since 1 June cooling degree days 1008 1237  
Growing Degree Days 35 (Base 50)    
Moisture  
Dew Point 74 °F    
Average Humidity 70    
Maximum Humidity 88    
Minimum Humidity 52    
Precipitation  
Precipitation 0.00 in 0.08 in 4.29 in (1969)
Month to date precipitation 0.31 1.50  
Year to date precipitation 27.96 32.21  
Snow  
Snow 0.00 in 0.00 in - ()
Month to date snowfall 0.0 0.0  
Since 1 June snowfall 0.0 0.0  
Since 1 July snowfall 0.0 0.0  
Snow Depth 0.00 in    
Sea Level Pressure  
Sea Level Pressure 29.92 in    
Wind  
Wind Speed 9 mph (SW)    
Max Wind Speed 17 mph    
Max Gust Speed 23 mph    
Visibility 10 miles    
Events Thunderstorm    
T = Trace of Precipitation, MM = Missing Value Source: NWS Daily Summary

Daily Weather History Graph

Daily Weather History Graph

Search for Another Location

Airport or City:

Trip Planner

Search our weather history database for the weather conditions in past years. The results will help you decide how hot, cold, wet, or windy it might be!

Date:

Astronomy

Aug. 17, 2014 Rise Set
Actual Time 6:30 AM CDT 7:52 PM CDT
Civil Twilight 6:04 AM CDT 8:18 PM CDT
Nautical Twilight 5:32 AM CDT 8:50 PM CDT
Astronomical Twilight 4:59 AM CDT 9:23 PM CDT
Moon No Moon Rise 1:55 PM CDT (8/17)
Length of Visible Light 14h 14m
Length of Day
13h 21m
Waning Gibbous, 48% of the Moon is Illuminated
Aug 17
Waning Gibbous
Aug 25
New
Sep 2
First Quarter
Sep 8
Full
Sep 15
Last Quarter

Hourly Weather History & Observations

Time (CDT) Temp. Heat Index Dew Point Humidity Pressure Visibility Wind Dir Wind Speed Gust Speed Precip Events Conditions
12:53 AM 80.1 °F 84.2 °F 73.0 °F 79% 29.92 in 10.0 mi South 8.1 mph - N/A   Clear
1:53 AM 78.8 °F - 73.4 °F 83% 29.92 in 10.0 mi SSW 8.1 mph - N/A   Clear
2:53 AM 79.0 °F - 73.0 °F 82% 29.91 in 10.0 mi SW 6.9 mph - N/A   Clear
3:53 AM 78.1 °F - 73.0 °F 84% 29.91 in 10.0 mi SW 5.8 mph - N/A   Clear
4:53 AM 77.0 °F - 73.0 °F 88% 29.91 in 10.0 mi SSW 6.9 mph - N/A   Clear
5:53 AM 77.0 °F - 73.0 °F 88% 29.92 in 10.0 mi SSW 5.8 mph - N/A   Clear
6:53 AM 78.1 °F - 73.0 °F 84% 29.94 in 10.0 mi SSW 6.9 mph - N/A   Partly Cloudy
7:53 AM 79.0 °F - 73.0 °F 82% 29.95 in 10.0 mi SW 10.4 mph - N/A   Clear
8:53 AM 82.0 °F 87.9 °F 73.9 °F 76% 29.95 in 10.0 mi SW 9.2 mph 18.4 mph N/A   Clear
9:53 AM 84.9 °F 93.3 °F 75.0 °F 72% 29.94 in 10.0 mi SW 9.2 mph 17.3 mph N/A   Clear
10:53 AM 87.1 °F 95.4 °F 73.9 °F 65% 29.94 in 10.0 mi SW 13.8 mph - N/A   Clear
11:53 AM 89.1 °F 99.1 °F 75.0 °F 63% 29.95 in 10.0 mi SW 10.4 mph - N/A   Partly Cloudy
12:53 PM 91.0 °F 102.9 °F 75.9 °F 61% 29.94 in 10.0 mi SW 13.8 mph - N/A   Partly Cloudy
1:53 PM 93.0 °F 104.6 °F 75.0 °F 56% 29.94 in 10.0 mi SW 10.4 mph - N/A   Scattered Clouds
2:10 PM 91.9 °F 103.2 °F 75.0 °F 58% 29.94 in 10.0 mi SW 10.4 mph - N/A Thunderstorm Partly Cloudy
2:35 PM 93.0 °F 104.6 °F 75.0 °F 56% 29.93 in 10.0 mi SW 10.4 mph 18.4 mph N/A   Partly Cloudy
2:53 PM 93.0 °F 103.2 °F 73.9 °F 54% 29.92 in 10.0 mi SW 15.0 mph 21.9 mph N/A   Scattered Clouds
3:53 PM 91.9 °F 101.3 °F 73.9 °F 55% 29.90 in 10.0 mi SW 10.4 mph 23.0 mph N/A   Partly Cloudy
4:53 PM 91.4 °F 100.1 °F 73.4 °F 55% 29.89 in 10.0 mi SW 12.7 mph 20.7 mph N/A   Clear
5:53 PM 91.0 °F 100.4 °F 73.9 °F 57% 29.90 in 10.0 mi SW 10.4 mph - N/A   Partly Cloudy
6:53 PM 89.1 °F 97.0 °F 73.0 °F 59% 29.89 in 10.0 mi SW 8.1 mph - N/A   Clear
7:53 PM 84.9 °F 92.1 °F 73.9 °F 69% 29.88 in 10.0 mi SSW 5.8 mph - N/A   Clear
8:53 PM 82.0 °F 87.9 °F 73.9 °F 76% 29.89 in 10.0 mi SSW 6.9 mph - N/A   Clear
9:53 PM 82.0 °F 87.9 °F 73.9 °F 76% 29.92 in 10.0 mi SSW 5.8 mph - N/A   Clear
10:53 PM 82.0 °F 87.9 °F 73.9 °F 76% 29.92 in 10.0 mi SW 4.6 mph - N/A   Clear
11:53 PM 79.0 °F - 73.9 °F 84% 29.91 in 10.0 mi SSW 4.6 mph - N/A   Clear